Location: New York
(40.7140°N, 74.0060°W)
Time: 12:11:42
(UTC-04:00)

ISS - Visible Passes

Search period start: 30 July 2015 00:00
Search period end: 09 August 2015 00:00
Orbit: 402 x 403 km, 51.6° (Epoch: 30 July)

Date Brightness Start Highest point End Pass type
(mag) Time Alt. Az. Time Alt. Az. Time Alt. Az.
30 Jul 0.0 02:28:26 10° NNW 02:30:14 14° N 02:32:03 10° NE visible
30 Jul -1.8 04:04:16 10° NW 04:07:21 38° NNE 04:10:26 10° E visible
30 Jul -1.4 20:45:12 10° SSE 20:46:31 12° SE 20:47:56 10° ESE visible
30 Jul -3.2 22:19:20 10° WSW 22:22:35 72° NW 22:23:39 38° NE visible
31 Jul0.200:04:12NE00:04:12NE23:56:35WNWvisible
31 Jul 0.1 01:36:54 12° N 01:36:54 12° N 01:38:24 10° NNE visible
31 Jul -1.0 03:11:26 10° NW 03:14:12 25° NNE 03:16:59 10° E visible
31 Jul -3.2 04:47:37 10° WNW 04:50:47 48° SW 04:53:55 10° SE visible
31 Jul -3.3 21:26:21 10° SW 21:29:32 57° SE 21:32:45 10° ENE visible
31 Jul -0.8 23:03:29 10° WNW 23:06:10 23° NNW 23:08:51 10° NNE visible
01 Aug -0.3 02:22:00 16° NE 02:22:00 16° NE 02:23:16 10° ENE visible
01 Aug -3.4 03:54:55 13° NW 03:57:44 83° NE 04:00:59 10° SE visible
01 Aug -1.6 22:09:51 10° W 22:12:52 34° NNW 22:15:54 10° NE visible
01 Aug 0.0 23:48:19 10° NW 23:50:02 13° N 23:51:09 12° NNE visible
02 Aug -1.5 04:42:06 16° SSW 04:42:06 16° SSW 04:43:15 10° S visible
02 Aug -2.8 21:16:22 10° WSW 21:19:35 60° NW 21:22:49 10° NE visible
02 Aug -0.2 22:54:23 10° NW 22:56:32 16° NNW 22:58:39 10° NNE visible
03 Aug 0.3 00:32:25 10° NNW 00:32:31 10° NNW 00:32:31 10° NNW visible
03 Aug -0.7 22:00:25 10° WNW 22:03:00 21° NNW 22:05:35 10° NNE visible
03 Aug 0.0 23:38:56 10° NNW 23:40:21 12° N 23:41:04 12° NNE visible
04 Aug -1.3 21:06:32 10° W 21:09:29 31° NNW 21:12:26 10° NE visible
04 Aug -0.1 22:45:03 10° NW 22:46:40 13° N 22:48:17 10° NNE visible
05 Aug -0.3 21:50:55 10° NW 21:52:58 15° NNW 21:54:59 10° NNE visible
05 Aug -0.1 23:28:47 10° NNW 23:30:23 13° N 23:30:24 13° N visible
06 Aug -0.6 20:56:44 10° WNW 20:59:13 20° NNW 21:01:42 10° NNE visible
06 Aug -0.2 22:35:10 10° NNW 22:36:34 12° N 22:38:00 10° NNE visible
07 Aug -0.3 21:41:08 10° NW 21:42:42 13° N 21:44:15 10° NNE visible
07 Aug -0.3 23:18:00 10° NNW 23:19:25 15° N 23:19:25 15° N visible
08 Aug -0.4 20:46:49 10° NW 20:48:46 15° NNW 20:50:41 10° NNE visible
08 Aug -0.5 22:24:31 10° NNW 22:26:11 13° N 22:27:33 11° NE visible
